When you browse on this site, cookies collect data to enhance your experience and personalize the content and advertising you see.
Visit our Privacy Policy to learn more. By continuing to use the site, you agree to this use of cookies and data.
  • In Deutschland
  • Länderverzeichnis
  • Für 7 Tage
  • Wassertemperatur
  • Satellitenkarten
  • Wetterkarte
  • Widgets
  • user-avatar
    Anmelden

    Stündliche Wetter Suhoy Ruchey

    Heute, 20 November, Dienstag

    Zeit Temperatur Niederschläge Wind Luftdruck Luftfeuchtigkeit
    00:00 -14°C° 0 mm 2 m/S 726 mmHg 76%
    01:00 -14°C° 0 mm 2 m/S 726 mmHg 75%
    02:00 -14°C° 0 mm 2 m/S 726 mmHg 75%
    03:00 -14°C° 0 mm 2 m/S 726 mmHg 75%
    04:00 -13°C° 0 mm 2 m/S 726 mmHg 75%
    05:00 -13°C° 0 mm 2 m/S 726 mmHg 75%
    06:00 -13°C° 0 mm 2 m/S 726 mmHg 75%
    07:00 -13°C° 0 mm 2 m/S 726 mmHg 75%
    08:00 -12°C° 0 mm 2 m/S 726 mmHg 74%
    09:00 -9°C° 0 mm 1 m/S 726 mmHg 73%
    10:00 -8°C° 0 mm 1 m/S 726 mmHg 72%
    11:00 -7°C° 0 mm 1 m/S 726 mmHg 71%
    12:00 -7°C° 0 mm 1 m/S 726 mmHg 69%
    13:00 -6°C° 0 mm 1 m/S 726 mmHg 68%
    14:00 -7°C° 0 mm 1 m/S 726 mmHg 73%
    15:00 -8°C° 0 mm 1 m/S 725 mmHg 79%
    16:00 -10°C° 0 mm 1 m/S 725 mmHg 84%
    17:00 -10°C° 0 mm 1 m/S 726 mmHg 85%
    18:00 -11°C° 0 mm 1 m/S 726 mmHg 87%
    19:00 -11°C° 0 mm 1 m/S 726 mmHg 88%
    20:00 -11°C° 0 mm 1 m/S 726 mmHg 87%
    21:00 -12°C° 0 mm 1 m/S 726 mmHg 86%
    22:00 -12°C° 0 mm 1 m/S 726 mmHg 85%
    23:00 -12°C° 0 mm 1 m/S 726 mmHg 84%

    Morgen, 21 November, Mittwoch

    Zeit Temperatur Niederschläge Wind Luftdruck Luftfeuchtigkeit
    00:00 -14°C° 0 mm 2 m/S 726 mmHg 82%
    01:00 -14°C° 0 mm 2 m/S 726 mmHg 81%
    02:00 -14°C° 0 mm 2 m/S 725 mmHg 80%
    03:00 -14°C° 0 mm 2 m/S 725 mmHg 79%
    04:00 -14°C° 0 mm 2 m/S 725 mmHg 78%
    05:00 -14°C° 0 mm 2 m/S 725 mmHg 77%
    06:00 -14°C° 0 mm 2 m/S 725 mmHg 77%
    07:00 -13°C° 0 mm 2 m/S 725 mmHg 76%
    08:00 -12°C° 0 mm 2 m/S 725 mmHg 74%
    09:00 -9°C° 0 mm 2 m/S 726 mmHg 71%
    10:00 -7°C° 0 mm 1 m/S 726 mmHg 68%
    11:00 -4°C° 0 mm 1 m/S 725 mmHg 65%
    12:00 -3°C° 0 mm 1 m/S 725 mmHg 61%
    13:00 -2°C° 0 mm 1 m/S 724 mmHg 58%
    14:00 -3°C° 0 mm 1 m/S 724 mmHg 63%
    15:00 -4°C° 0 mm 1 m/S 724 mmHg 69%
    16:00 -7°C° 0 mm 1 m/S 724 mmHg 74%
    17:00 -8°C° 0 mm 2 m/S 724 mmHg 76%
    18:00 -9°C° 0 mm 2 m/S 724 mmHg 77%
    19:00 -9°C° 0 mm 2 m/S 724 mmHg 79%
    20:00 -9°C° 0 mm 2 m/S 724 mmHg 79%
    21:00 -9°C° 0 mm 2 m/S 724 mmHg 79%
    22:00 -9°C° 0 mm 2 m/S 724 mmHg 78%
    23:00 -9°C° 0 mm 2 m/S 724 mmHg 78%

    übermorgen, 22 November, Donnerstag

    Zeit Temperatur Niederschläge Wind Luftdruck Luftfeuchtigkeit
    00:00 -9°C° 0 mm 2 m/S 724 mmHg 78%
    01:00 -9°C° 0 mm 2 m/S 724 mmHg 77%
    02:00 -9°C° 0 mm 2 m/S 723 mmHg 77%
    03:00 -9°C° 0 mm 2 m/S 723 mmHg 77%
    04:00 -9°C° 0 mm 2 m/S 723 mmHg 76%
    05:00 -9°C° 0 mm 2 m/S 723 mmHg 76%
    06:00 -9°C° 0 mm 2 m/S 723 mmHg 76%
    07:00 -9°C° 0 mm 2 m/S 723 mmHg 76%
    08:00 -7°C° 0 mm 1 m/S 723 mmHg 74%
    09:00 -4°C° 0 mm 1 m/S 723 mmHg 72%
    10:00 -3°C° 0 mm 1 m/S 722 mmHg 70%
    11:00 -1°C° 0 mm 1 m/S 722 mmHg 68%
    12:00 -1°C° 0 mm 0 m/S 721 mmHg 66%
    13:00 0°C° 0 mm 0 m/S 721 mmHg 64%
    14:00 -2°C° 0 mm 0 m/S 721 mmHg 70%
    15:00 -3°C° 0 mm 0 m/S 720 mmHg 76%
    16:00 -4°C° 0 mm 0 m/S 720 mmHg 81%
    17:00 -4°C° 0 mm 1 m/S 720 mmHg 82%
    18:00 -6°C° 0 mm 1 m/S 720 mmHg 83%
    19:00 -6°C° 0 mm 1 m/S 720 mmHg 84%
    20:00 -6°C° 0 mm 1 m/S 720 mmHg 84%
    21:00 -8°C° 0 mm 2 m/S 720 mmHg 84%
    22:00 -8°C° 0 mm 2 m/S 720 mmHg 84%
    23:00 -8°C° 0 mm 2 m/S 720 mmHg 84%

    23 November, Freitag

    Zeit Temperatur Niederschläge Wind Luftdruck Luftfeuchtigkeit
    00:00 -8°C° 0 mm 2 m/S 720 mmHg 83%
    01:00 -8°C° 0 mm 2 m/S 720 mmHg 83%
    02:00 -8°C° 0 mm 2 m/S 720 mmHg 83%
    03:00 -8°C° 0 mm 2 m/S 720 mmHg 82%
    04:00 -8°C° 0 mm 2 m/S 720 mmHg 82%
    05:00 -8°C° 0 mm 2 m/S 720 mmHg 81%
    06:00 -8°C° 0 mm 2 m/S 720 mmHg 81%
    07:00 -8°C° 0 mm 2 m/S 720 mmHg 80%
    08:00 -6°C° 0 mm 2 m/S 720 mmHg 77%
    09:00 -5°C° 0 mm 2 m/S 720 mmHg 74%
    10:00 -1°C° 0 mm 1 m/S 720 mmHg 72%
    11:00 0°C° 0 mm 1 m/S 720 mmHg 69%
    12:00 +1°C° 0 mm 1 m/S 719 mmHg 67%
    13:00 +2°C° 0 mm 1 m/S 719 mmHg 64%
    14:00 +1°C° 0 mm 1 m/S 719 mmHg 69%
    15:00 0°C° 0 mm 1 m/S 719 mmHg 73%
    16:00 -2°C° 0 mm 1 m/S 719 mmHg 77%
    17:00 -4°C° 0 mm 2 m/S 719 mmHg 78%
    18:00 -5°C° 0 mm 2 m/S 719 mmHg 78%
    19:00 -5°C° 0 mm 2 m/S 720 mmHg 78%
    20:00 -5°C° 0 mm 2 m/S 720 mmHg 77%
    21:00 -5°C° 0 mm 2 m/S 720 mmHg 77%
    22:00 -5°C° 0 mm 2 m/S 720 mmHg 76%
    23:00 -5°C° 0 mm 2 m/S 720 mmHg 76%

    24 November, Samstag

    Zeit Temperatur Niederschläge Wind Luftdruck Luftfeuchtigkeit
    00:00 -5°C° 0 mm 2 m/S 720 mmHg 75%
    01:00 -5°C° 0 mm 2 m/S 720 mmHg 75%
    02:00 -5°C° 0 mm 2 m/S 720 mmHg 75%
    03:00 -5°C° 0 mm 2 m/S 720 mmHg 75%
    04:00 -5°C° 0 mm 2 m/S 720 mmHg 74%
    05:00 -4°C° 0 mm 2 m/S 720 mmHg 74%
    06:00 -4°C° 0 mm 2 m/S 720 mmHg 74%
    07:00 -4°C° 0 mm 2 m/S 720 mmHg 74%
    08:00 -3°C° 0 mm 2 m/S 720 mmHg 72%
    09:00 -1°C° 0 mm 2 m/S 720 mmHg 71%
    10:00 +1°C° 0 mm 2 m/S 720 mmHg 70%
    11:00 +2°C° 0 mm 2 m/S 719 mmHg 70%
    12:00 +4°C° 0 mm 1 m/S 719 mmHg 70%
    13:00 +5°C° 0 mm 1 m/S 718 mmHg 70%
    14:00 +3°C° 0 mm 1 m/S 718 mmHg 74%
    15:00 +1°C° 0 mm 2 m/S 718 mmHg 79%
    16:00 -2°C° 0 mm 2 m/S 718 mmHg 83%
    17:00 -1°C° 0 mm 1 m/S 718 mmHg 84%
    18:00 -2°C° 0 mm 1 m/S 718 mmHg 85%
    19:00 -4°C° 0 mm 1 m/S 718 mmHg 86%
    20:00 -4°C° 0 mm 1 m/S 717 mmHg 85%
    21:00 -6°C° 0 mm 2 m/S 716 mmHg 84%
    22:00 -6°C° 0 mm 2 m/S 715 mmHg 83%
    23:00 -6°C° 0 mm 3 m/S 714 mmHg 81%

    25 November, Sonntag

    Zeit Temperatur Niederschläge Wind Luftdruck Luftfeuchtigkeit
    00:00 -5°C° 0 mm 3 m/S 713 mmHg 79%
    01:00 -4°C° 0 mm 3 m/S 712 mmHg 77%
    02:00 -3°C° 0 mm 4 m/S 710 mmHg 74%
    03:00 -3°C° 0 mm 4 m/S 709 mmHg 71%
    04:00 -2°C° 0 mm 4 m/S 708 mmHg 67%
    05:00 -1°C° 0 mm 4 m/S 707 mmHg 65%
    06:00 0°C° 0 mm 4 m/S 706 mmHg 63%
    07:00 +1°C° 0 mm 5 m/S 706 mmHg 61%
    08:00 +2°C° 0 mm 5 m/S 706 mmHg 62%
    09:00 +2°C° 0 mm 5 m/S 706 mmHg 62%
    10:00 +3°C° 0 mm 5 m/S 705 mmHg 63%
    11:00 +2°C° 0.1 mm 5 m/S 706 mmHg 67%
    12:00 -1°C° 0.1 mm 6 m/S 707 mmHg 71%
    13:00 -2°C° 0.1 mm 7 m/S 708 mmHg 76%
    14:00 -4°C° 0.4 mm 5 m/S 709 mmHg 79%
    15:00 -5°C° 0.4 mm 4 m/S 711 mmHg 82%
    16:00 -7°C° 0.4 mm 3 m/S 713 mmHg 85%
    17:00 -7°C° 0.1 mm 3 m/S 714 mmHg 79%
    18:00 -8°C° 0.1 mm 3 m/S 715 mmHg 73%
    19:00 -9°C° 0.1 mm 3 m/S 716 mmHg 67%
    20:00 -10°C° 0 mm 3 m/S 716 mmHg 65%
    21:00 -10°C° 0 mm 3 m/S 717 mmHg 64%
    22:00 -11°C° 0 mm 4 m/S 717 mmHg 62%
    23:00 -11°C° 0 mm 4 m/S 717 mmHg 63%
    Mehr zeigen